Date String (YYYY-MM-DD hh:mm:ss) UTC,Instrument flags,absolute air pressure of the measurement (hPa),sample flow rate (lpm),inlet stack bypass flow (lpm),air temperature of the measurement (°C),ambient temperature measured by the external sensor (°C),aerosol sample conditioner tube jacket temperature (°C),OPC LED temperature (°C),internal box temperature (°C),relative humidity of the measurement (%),span deviation,mass concentration of particles derived from Lorenz-Mie calculation of OPC scattering (μg/m³),mass concentration of particles derived from Lorenz-Mie calculation of OPC scattering (μg/m³),mass concentration of particles derived from Lorenz-Mie calculation of OPC scattering (μg/m³)
DateTimeUTC,F1_M11,P_M11,Q1_M11,Q2_M11,T1_M11,T2_M11,T3_M11,T4_M11,T5_M11,U1_M11,ZSPAN_M11,X0_M11,X2_M11,X1_M11
2024-01-20 07:00:00,SystemResetWarning,0831.3,5.02,000.00,018.8,017.7,000.0,027.2,020.3,13.0,0001.5,0016.82,0009.22,0008.41
2024-01-20 07:01:00,SystemResetWarning,0831.3,4.99,000.00,018.9,018.5,000.0,027.2,020.8,12.9,0001.4,0016.83,0009.18,0008.39
2024-01-20 07:02:00,SystemResetWarning,0831.3,5.00,000.00,019.0,018.9,000.0,027.2,020.7,12.9,0001.7,0016.72,0009.15,0008.38
2024-01-20 07:03:00,SystemResetWarning,0831.2,4.99,000.00,019.0,018.7,000.0,027.2,020.2,12.9,0001.7,0016.30,0009.18,0008.40
2024-01-20 07:04:00,SystemResetWarning,0831.2,5.00,000.00,018.9,018.5,000.0,027.2,020.0,13.0,0002.2,0014.75,0009.18,0008.40
2024-01-20 07:05:00,SystemResetWarning,0831.2,5.01,000.00,018.9,018.3,000.0,027.2,020.0,13.0,0002.3,0014.53,0009.20,0008.41
2024-01-20 07:06:00,SystemResetWarning,0831.1,5.00,000.00,018.9,018.2,000.0,027.2,020.0,13.1,0002.0,0014.30,0009.17,0008.40
2024-01-20 07:07:00,SystemResetWarning,0831.2,4.99,000.00,018.9,018.1,000.0,027.2,020.0,13.1,0002.2,0014.37,0009.19,0008.40
2024-01-20 07:08:00,SystemResetWarning,0831.2,5.00,000.00,018.8,018.0,000.0,027.2,020.0,13.1,0002.3,0014.18,0009.18,0008.36
2024-01-20 07:09:00,SystemResetWarning,0831.2,5.00,000.00,018.8,017.9,000.0,027.2,020.0,13.1,0002.5,0015.36,0009.19,0008.35
2024-01-20 07:10:00,SystemResetWarning,0831.1,5.00,000.00,018.8,017.9,000.0,027.2,020.0,13.2,0002.8,0015.22,0009.18,0008.34
2024-01-20 07:11:00,SystemResetWarning,0831.1,5.01,000.00,018.8,017.8,000.0,027.2,020.0,13.2,0003.3,0014.76,0009.11,0008.31
2024-01-20 07:12:00,SystemResetWarning,0831.2,5.00,000.00,018.8,017.8,000.0,027.2,020.0,13.2,0003.5,0014.45,0009.08,0008.30
2024-01-20 07:13:00,SystemResetWarning,0831.2,5.01,000.00,018.8,017.7,000.0,027.2,020.0,13.2,0003.4,0014.39,0009.04,0008.28
2024-01-20 07:14:00,SystemResetWarning,0831.2,5.00,000.00,018.8,017.7,000.0,027.2,020.0,13.2,0003.3,0014.45,0008.96,0008.25
2024-01-20 07:15:00,SystemResetWarning,0831.1,4.99,000.00,018.7,017.6,000.0,027.2,020.0,13.2,0003.0,0015.11,0008.90,0008.23
2024-01-20 07:16:00,SystemResetWarning,0831.1,4.99,000.00,018.7,017.6,000.0,027.2,020.0,13.2,0003.4,0015.36,0008.86,0008.20
2024-01-20 07:17:00,SystemResetWarning,0831.1,5.01,000.00,018.7,017.6,000.0,027.2,020.0,13.2,0003.8,0016.27,0008.91,0008.20
2024-01-20 07:18:00,SystemResetWarning,0831.1,5.00,000.00,018.7,017.5,000.0,027.2,020.0,13.2,0004.0,0016.55,0008.91,0008.18
2024-01-20 07:19:00,SystemResetWarning,0831.0,5.01,000.00,018.7,017.5,000.0,027.2,020.0,13.2,0004.0,0016.65,0008.94,0008.18
2024-01-20 07:20:00,SystemResetWarning,0831.1,5.00,000.00,018.7,017.4,000.0,027.2,020.0,13.2,0003.6,0015.55,0008.92,0008.17
2024-01-20 07:21:00,SystemResetWarning,0831.1,5.00,000.00,018.7,017.4,000.0,027.2,020.0,13.2,0003.6,0015.39,0008.90,0008.14
2024-01-20 07:22:00,SystemResetWarning,0831.1,5.00,000.00,018.8,017.8,000.0,027.2,020.4,13.2,0003.6,0016.03,0008.95,0008.15
2024-01-20 07:23:00,SystemResetWarning,0831.1,5.01,000.00,018.9,018.6,000.0,027.2,020.8,13.1,0003.2,0016.54,0008.95,0008.15
2024-01-20 07:24:00,SystemResetWarning,0831.0,5.00,000.00,019.0,018.9,000.0,027.2,020.7,13.0,0003.3,0016.94,0008.96,0008.15
2024-01-20 07:25:00,SystemResetWarning,0830.9,4.99,000.00,019.0,018.8,000.0,027.2,020.4,13.0,0003.4,0016.74,0008.99,0008.17
2024-01-20 07:26:00,SystemResetWarning,0830.9,4.99,000.00,019.0,018.7,000.0,027.2,020.2,13.0,0003.6,0016.24,0009.07,0008.19
2024-01-20 07:27:00,SystemResetWarning,0830.9,4.99,000.00,018.9,018.6,000.0,027.2,020.1,13.0,0003.6,0016.90,0009.15,0008.21
2024-01-20 07:28:00,SystemResetWarning,0830.9,5.01,000.00,018.9,018.4,000.0,027.2,020.0,13.1,0003.1,0015.97,0009.14,0008.22
2024-01-20 07:29:00,SystemResetWarning,0830.9,5.00,000.00,018.9,018.3,000.0,027.2,020.0,13.1,0002.5,0015.71,0009.15,0008.21
2024-01-20 07:30:00,SystemResetWarning,0830.9,5.00,000.00,018.8,018.2,000.0,027.2,020.0,13.1,0002.5,0016.01,0009.06,0008.15
2024-01-20 07:31:00,SystemResetWarning,0830.9,5.00,000.00,018.8,018.1,000.0,027.2,020.0,13.1,0002.6,0015.81,0008.94,0008.04
2024-01-20 07:32:00,SystemResetWarning,0830.9,5.01,000.00,018.8,018.0,000.0,027.2,020.0,13.1,0002.3,0016.10,0008.81,0007.91
2024-01-20 07:33:00,SystemResetWarning,0830.9,5.01,000.00,018.8,017.9,000.0,027.2,020.0,13.1,0002.4,0015.60,0008.58,0007.74
2024-01-20 07:34:00,SystemResetWarning,0830.9,5.00,000.00,018.8,017.8,000.0,027.2,020.0,13.1,0002.6,0015.36,0008.41,0007.59
2024-01-20 07:35:00,SystemResetWarning,0830.9,4.99,000.00,018.8,017.7,000.0,027.2,020.0,13.1,0002.4,0014.85,0008.24,0007.46
2024-01-20 07:36:00,SystemResetWarning,0830.9,4.99,000.00,018.7,017.7,000.0,027.2,020.0,13.1,0002.0,0014.91,0008.10,0007.34
2024-01-20 07:37:00,SystemResetWarning,0830.8,5.01,000.00,018.7,017.6,000.0,027.2,020.0,13.1,0001.9,0014.90,0008.08,0007.33
2024-01-20 07:38:00,SystemResetWarning,0830.8,5.02,000.00,018.7,017.6,000.0,027.2,020.0,13.1,0001.7,0014.50,0008.04,0007.34
2024-01-20 07:39:00,SystemResetWarning,0830.8,5.00,000.00,018.7,017.5,000.0,027.2,020.0,13.2,0002.1,0014.36,0008.10,0007.37
2024-01-20 07:40:00,SystemResetWarning,0830.8,4.99,000.00,018.7,017.5,000.0,027.2,020.0,13.2,0002.8,0014.31,0008.09,0007.39
2024-01-20 07:41:00,SystemResetWarning,0830.8,4.99,000.00,018.7,017.5,000.0,027.2,020.0,13.2,0003.1,0014.64,0008.09,0007.42
2024-01-20 07:42:00,SystemResetWarning,0830.7,5.00,000.00,018.7,017.4,000.0,027.2,020.0,13.2,0002.9,0015.70,0008.19,0007.50
2024-01-20 07:43:00,SystemResetWarning,0830.7,5.01,000.00,018.7,017.4,000.0,027.2,020.0,13.3,0003.2,0015.84,0008.32,0007.60
2024-01-20 07:44:00,SystemResetWarning,0830.7,5.00,000.00,018.7,017.6,000.0,027.2,020.2,13.3,0003.1,0015.25,0008.49,0007.76
2024-01-20 07:45:00,SystemResetWarning,0830.7,5.01,000.00,018.8,018.3,000.0,027.2,020.7,13.2,0002.8,0015.71,0008.69,0007.91
2024-01-20 07:46:00,SystemResetWarning,0830.8,4.99,000.00,019.0,019.0,000.0,027.2,020.9,13.1,0002.9,0015.43,0008.78,0007.99
2024-01-20 07:47:00,SystemResetWarning,0830.7,4.99,000.00,019.0,018.9,000.0,027.2,020.6,13.0,0003.4,0015.17,0008.79,0007.99
2024-01-20 07:48:00,SystemResetWarning,0830.7,4.99,000.00,019.0,018.8,000.0,027.2,020.3,13.0,0003.8,0015.12,0008.72,0007.91
2024-01-20 07:49:00,SystemResetWarning,0830.7,5.01,000.00,019.0,018.7,000.0,027.2,020.2,13.0,0004.0,0014.57,0008.53,0007.74
2024-01-20 07:50:00,SystemResetWarning,0830.7,5.00,000.00,019.0,018.6,000.0,027.2,020.1,13.1,0003.6,0014.05,0008.28,0007.57
2024-01-20 07:51:00,SystemResetWarning,0830.7,5.00,000.00,018.9,018.4,000.0,027.2,020.1,13.1,0003.6,0013.76,0008.11,0007.43
2024-01-20 07:52:00,SystemResetWarning,0830.7,5.00,000.00,018.9,018.3,000.0,027.2,020.0,13.1,0003.5,0013.65,0008.11,0007.41
2024-01-20 07:53:00,SystemResetWarning,0830.7,5.00,000.00,018.8,018.2,000.0,027.2,020.0,13.2,0001.2,0012.30,0008.08,0007.38
2024-01-20 07:54:00,SystemResetWarning,0830.6,5.00,000.00,018.8,018.1,000.0,027.2,020.0,13.2,0000.0,0012.28,0007.99,0007.36
2024-01-20 07:55:00,SystemResetWarning,0830.6,5.00,000.00,018.8,018.0,000.0,027.2,020.0,13.2,0000.0,0012.51,0007.99,0007.36
2024-01-20 07:56:00,SystemResetWarning,0830.6,5.00,000.00,018.8,017.9,000.0,027.2,020.0,13.3,0001.1,0012.60,0008.00,0007.38
2024-01-20 07:57:00,SystemResetWarning,0830.6,5.00,000.00,018.8,017.9,000.0,027.2,020.0,13.3,0001.0,0012.99,0008.09,0007.47
2024-01-20 07:58:00,SystemResetWarning,0830.5,5.01,000.00,018.8,017.9,000.0,027.2,020.0,13.3,0002.5,0014.20,0008.16,0007.53
2024-01-20 07:59:00,SystemResetWarning,0830.5,5.00,000.00,018.7,017.8,000.0,027.2,020.0,13.3,0002.0,0014.45,0008.20,0007.60
